sat.trackr.live / text

‹ back to catalog

HULIANWANG DIGUI-34

NORAD 64287 · 2025-121E

PAYLOAD ACTIVE UNKNOWN

§ Identity

Operator
Country
PRC
Launch date
2025-06-05
Launch site
TAISC
Launch vehicle
Mass (kg)
RCS (m²)

External: N2YO · Heavens-Above · Gunter

§ Orbital elements

Epoch: 2026-09-21T21:57:53.418240Z

Period
108.73 min
Inclination
86.5039°
Eccentricity
0.0001646
Mean motion
13.24412841 rev/d
Perigee alt
1,166.7 km
Apogee alt
1,169.2 km
Semi-major
7,546.0 km
B*
5.1780e-5
RAAN
340.9039°
Arg perigee
120.0396°
Mean anomaly
240.0902°
Rev number
6,296

§ Raw data

HULIANWANG DIGUI-341 64287U 25121E   26264.91520160  .00000037  00000+0  51780-4 0  99962 64287  86.5039 340.9039 0001646 120.0396 240.0902 13.24412841 62966

JSON: /api/v1/satellites/64287 · /tle

For live sub-satellite position, see the globe view (requires WebGL).

§ Visibility from observer

Set your observer location to see the next 7 days of passes ≥ 10°. The values pass through the URL so the page stays shareable.

No JS? Fill the form by hand. The geolocation button needs JavaScript.